Location: Rodson Ranch
(38.7188°N, 119.3202°W)
Time: 13:40:18
(UTC+00:00)

Cosmos 614 Rocket - Pass Details

Date: 29 October 2020
Orbit: 734 x 763 km, 74.1° (Epoch: 01 December)

Event Time Altitude Azimuth Distance (km) Brightness Sun altitude
Rises 13:11:27 0° 209° (SSW) 3,189 7.0 -14.2°
Reaches altitude 10° 13:13:52 10° 213° (SSW) 2,264 6.2 -13.8°
Maximum altitude 13:18:53 55° 291° (WNW) 896 4.0 -12.8°
Drops below altitude 10° 13:23:54 10° 9° (N) 2,259 6.5 -11.8°
Sets 13:26:19 0° 14° (NNE) 3,182 7.3 -11.4°
